Regional Weather Roundup
Issued by NWS

Home | Current Version | Previous Version | Text Only | Print | Product List | Glossary Off
Versions: 1 2 3 4 5 6 7 8 9 10 11 12 13 14 15 16 17 18 19 20 21 22 23 24 25 26 27 28 29 30 31 32 33 34 35 36 37 38 39 40 41 42 43 44 45 46 47 48 49 50

000
ASUS43 KMPX 021610
RWRMN
WEATHER ROUNDUP FOR MINNESOTA
NATIONAL WEATHER SERVICE TWIN CITIES/CHANHASSEN MN
1100 AM CDT MON MAY 02 2016


NOTE: "FAIR" INDICATES FEW OR NO CLOUDS BELOW 12,000 FEET WITH NO
SIGNIFICANT WEATHER AND/OR OBSTRUCTIONS TO VISIBILITY. N/A MEANS
CURRENT SKY AND/OR WEATHER CONDITIONS ARE NOT AVAILABLE.

MNZ060>063-068>070-021700-
   Twin Cities Metro

CITY           SKY/WX    TMP DP  RH WIND       PRES   REMARKS
TWIN CITIES    SUNNY     61  34  36 N7        30.10F
ST PAUL        SUNNY     60  34  37 CALM      30.11F
CRYSTAL        SUNNY     62  33  33 NE3       30.09F
BLAINE         SUNNY     61  34  36 N7        30.10F
EDEN PRAIRIE   SUNNY     61  31  32 SW6       30.09F
SOUTH ST PAUL  SUNNY     60  35  39 CALM      30.10S
LAKE ELMO      FAIR      59  37  44 N5        30.11S
$$
MNZ001>005-007-008-013>017-022>024-027-028-021700-
   Northwest Minnesota

CITY           SKY/WX    TMP DP  RH WIND       PRES   REMARKS
BEMIDJI        SUNNY     60  30  31 S5        30.05S
HALLOCK        SUNNY     63  30  29 SE5       30.02S
ROSEAU         SUNNY     63  30  29 E6        30.05S
WARROAD        SUNNY     57  36  44 NE7       30.07S
THIEF RVR FALL SUNNY     63  25  23 CALM      30.05S
CROOKSTON      SUNNY     64  28  25 SE8       30.03S
FOSSTON        SUNNY     63  36  36 CALM      30.04F
DETROIT LAKES  PTSUNNY   61  32  33 CALM      30.05F
MOORHEAD       SUNNY     63  30  29 CALM      30.03F
PARK RAPIDS    SUNNY     61  32  33 CALM      30.05F
MAHNOMEN       FAIR      62  28  27 S6        30.03F
$$
MNZ006-009>011-018-025>026-021700-
   North Central Minnesota

CITY           SKY/WX    TMP DP  RH WIND       PRES   REMARKS
BAUDETTE       SUNNY     61  27  27 VRB6      30.06F
FLAG ISLAND    SUNNY     48  39  71 SE6       30.07F
INTL FALLS     SUNNY     59  28  30 VRB5      30.07F
WASKISH        SUNNY     61  32  33 W5        30.06S
BIG FORK       MOSUNNY   61  32  33 E3        30.07S
LONGVILLE      SUNNY     61  30  31 SW5       30.06F
GRAND RAPIDS   SUNNY     57  32  38 S8        30.09S
CRANE LAKE     SUNNY     55  32  41 NW5       30.10F
ORR            SUNNY     57  28  33 CALM      30.05F
COOK           SUNNY     57  32  38 SW3       30.08F
WALKER         FAIR      58  31  35 E9        30.05F
$$
MNZ012-019>021-037-021700-
   Northeast Minnesota

CITY           SKY/WX    TMP DP  RH WIND       PRES   REMARKS
DULUTH         SUNNY     57  33  40 CALM      30.09F
ELY            SUNNY     57  28  33 SW7       30.09S
HIBBING        SUNNY     56  31  38 CALM      30.08F
EVELETH        SUNNY     57  30  35 SW7       30.10S
DULUTH HARBOR  SUNNY     45  37  76 CALM      30.13S
TWO HARBORS    SUNNY     59  39  47 SE9       30.08F
SILVER BAY     SUNNY     57  32  38 S8        30.08F
GRAND MARAIS     N/A     42  33  70 E5        30.11F
G MARAIS ARPRT SUNNY     55  27  33 CALM      30.10S
$$
MNZ029>031-032-039>041-046>048-054>057-064-021700-
   West Central Minnesota

CITY           SKY/WX    TMP DP  RH WIND       PRES   REMARKS
FERGUS FALLS   SUNNY     61  34  36 CALM      30.03F
WHEATON        SUNNY     64  37  36 W6        30.07F
MORRIS         MOSUNNY   61  36  39 CALM      30.06F
ALEXANDRIA     MOSUNNY   60  32  34 VRB3      30.07F
ELBOW LAKE     FAIR      60  36  41 S3        30.06F
WADENA         SUNNY     59  36  41 CALM      30.06S
GLENWOOD       MOSUNNY   61  32  33 SW3       30.08S
APPLETON       MOSUNNY   61  36  39 W3        30.07F
BENSON         MOSUNNY   61  30  31 S3        30.08F
ORTONVILLE     MOSUNNY   63  34  34 W5        30.06F
MADISON        PTSUNNY   61  34  36 W3        30.08S
WILLMAR        FAIR      63  34  34 CALM      30.10S
$$
MNZ033>034-036-042>043-049>051-058-059-021700-
   Central Minnesota

CITY           SKY/WX    TMP DP  RH WIND       PRES   REMARKS
ST CLOUD       SUNNY     60  33  36 CALM      30.09F
SAUK CENTRE    FAIR      60  34  37 SW7       30.08S
PAYNESVILLE    SUNNY     62  32  32 CALM      30.09F
AITKIN         SUNNY     63  25  23 SE3       30.07S
PINE RIVER     SUNNY     59  36  41 SE8       30.09F
BRAINERD       SUNNY     60  32  34 CALM      30.08F
STAPLES        SUNNY     61  30  31 SW5       30.06F
LONG PRAIRIE   FAIR      59  32  36 CALM      30.07F
LITTLE FALLS   SUNNY     59  32  36 S7        30.08F
LITCHFIELD     SUNNY     61  34  36 W3        30.10S
BUFFALO        SUNNY     58  33  38 CALM      30.11F
MAPLE LAKE     SUNNY     60  37  41 NW3       30.10F
HUTCHINSON       N/A     61  37  41 CALM      30.11
$$
MNZ037-044-045-052-053-021700-
   East Central Minnesota

CITY           SKY/WX    TMP DP  RH WIND       PRES   REMARKS
PRINCETON      SUNNY     61  34  36 N3        30.10F
MORA           SUNNY     55  32  41 CALM      30.11F
CAMBRIDGE      SUNNY     61  39  44 NW3       30.08F
RUSH CITY      SUNNY     58  35  42 CALM      30.10F
MOOSE LAKE     SUNNY     59  34  38 E3        30.08F
HINCKLEY       FAIR      59  34  38 SW3       30.10F
CLOQUET        SUNNY     57  30  35 S5        30.09F
MCGREGOR       SUNNY     59  32  36 W5        30.09S
$$
MNZ071>073-080-081-089-090-097-098-021700-
   Southwest Minnesota

CITY           SKY/WX    TMP DP  RH WIND       PRES   REMARKS
MONTEVIDEO     MOSUNNY   63  37  39 CALM      30.10F
GRANITE FALLS  SUNNY     62  35  37 CALM      30.11S
CANBY          PTSUNNY   64  37  37 NW3       30.09F
MARSHALL       SUNNY     60  33  36 NW6       30.10F
REDWOOD FALLS  SUNNY     60  31  33 VRB5      30.10F
OLIVIA         SUNNY     59  34  38 W3        30.09S
PIPESTONE      SUNNY     57  34  41 N8        30.10F
WINDOM         SUNNY     59  30  33 CALM      30.11S
WORTHINGTON    SUNNY     57  34  41 W6        30.12F
JACKSON        CLOUDY    55  34  44 NW3       30.12S
TRACY          SUNNY     60  35  38 N6        30.11S
SLAYTON        SUNNY     57  31  37 NW7       30.11F
$$
MNZ065>067-074>077-082>085-091>093-021700-
   South Central Minnesota

CITY           SKY/WX    TMP DP  RH WIND       PRES   REMARKS
MANKATO        SUNNY     57  39  51 NW5       30.11F
NEW ULM        SUNNY     57  34  41 CALM      30.11S
ST JAMES       SUNNY     54  30  40 CALM      30.12S
FAIRMONT       SUNNY     57  34  41 CALM      30.11S
GLENCOE        SUNNY     60  40  48 SW5       30.10F
FARIBAULT      SUNNY     61  39  44 SW6       30.11S
OWATONNA       SUNNY     59  39  47 NW3       30.11S
WASECA         SUNNY     55  43  62 NW3       30.12S
ALBERT LEA     MOSUNNY   57  37  47 N2        30.10F
$$
MNZ078>079-086>088-094>096-021700-
   Southeast Minnesota

CITY           SKY/WX    TMP DP  RH WIND       PRES   REMARKS
ROCHESTER      SUNNY     57  40  52 SW9       30.12S
RED WING       SUNNY     63  37  39 W8        30.09F
STANTON        SUNNY     59  40  48 CALM      30.10S
DODGE CENTER   SUNNY     61  45  55 SW5       30.11S
WINONA         SUNNY     61  39  44 SE5       30.11F
AUSTIN         SUNNY     57  39  51 CALM      30.11S
PRESTON        SUNNY     55  40  57 S9        30.12S
$$
ABBREVIATIONS USED IN REMARKS
   TC - TEMPERATURES IN CELSIUS
  WCI - WIND CHILL INDEX
   HX - HEAT INDEX
  VSB - VISIBILITY
$$




USA.gov is the U.S. government's official web portal to all federal, state and local government web resources and services.